West Palm Beach, FL

8:30 AM EST on December 08, 2019 (GMT -0500)
Palm Beach International

Weather History for KPBI - October, 2019

Change the Weather History Date:

Tuesday, October 22, 2019

  Actual Average Record
Temperature  
Mean Temperature 83 °F 77 °F  
Max Temperature 88 °F 84 °F 91 °F (1941)
Min Temperature 77 °F 71 °F 53 °F (1961)
Degree Days  
Heating Degree Days 0 0  
Month to date heating degree days 0 0  
Since 1 July heating degree days 0 0  
Cooling Degree Days 18 12  
Month to date cooling degree days 373 311  
Year to date cooling degree days 4082 3519  
Growing Degree Days 32 (Base 50)    
Moisture  
Dew Point 75 °F    
Average Humidity 79    
Maximum Humidity 94    
Minimum Humidity 63    
Precipitation  
Precipitation 0.01 in 0.15 in 2.45 in (1915)
Month to date precipitation 4.28 3.78  
Year to date precipitation 52.27 52.85  
Snow  
Snow 0.00 in - - ()
Month to date snowfall 0.0  
Since 1 July snowfall 0.0  
Since 1 September snowfall 0.0  
Snow Depth 0.00 in    
Sea Level Pressure  
Sea Level Pressure 30.00 in    
Wind  
Wind Speed 5 mph (SSE)    
Max Wind Speed 13 mph    
Max Gust Speed 18 mph    
Visibility 10 miles    
Events Rain , Thunderstorm    
T = Trace of Precipitation, MM = Missing Value Source: NWS Daily Summary

Daily Weather History Graph

Daily Weather History Graph

Search for Another Location

Airport or City:

Astronomy

Oct. 22, 2019 Rise Set
Actual Time 7:23 AM EDT 6:45 PM EDT
Civil Twilight 7:00 AM EDT 7:09 PM EDT
Nautical Twilight 6:32 AM EDT 7:36 PM EDT
Astronomical Twilight 6:05 AM EDT 8:03 PM EDT
Moon 1:17 AM EDT (10/22) 3:11 PM EDT (10/22)
Length of Visible Light 12h 09m
Length of Day
11h 22m
Last Quarter, 37% of the Moon is Illuminated
Oct 22
Last Quarter
Oct 27
New
Nov 4
First Quarter
Nov 12
Full
Nov 19
Last Quarter

Hourly Weather History & Observations

Time (EDT) Temp. Heat Index Dew Point Humidity Pressure Visibility Wind Dir Wind Speed Gust Speed Precip Events Conditions
12:53 AM 81.0 °F 86.7 °F 75.0 °F 82% 30.02 in 10.0 mi SSE 5.8 mph - N/A   Partly Cloudy
1:53 AM 80.1 °F 85.1 °F 75.0 °F 85% 30.01 in 10.0 mi Calm Calm - N/A   Partly Cloudy
2:53 AM 81.0 °F 87.3 °F 75.9 °F 85% 30.01 in 10.0 mi South 5.8 mph - 0.00 in   Mostly Cloudy
3:53 AM 80.1 °F 85.4 °F 75.9 °F 87% 30.01 in 10.0 mi Calm Calm - 0.00 in   Mostly Cloudy
4:53 AM 79.0 °F - 75.0 °F 88% 30.01 in 10.0 mi SSW 3.5 mph - N/A   Scattered Clouds
5:53 AM 77.0 °F - 75.0 °F 94% 30.02 in 10.0 mi West 3.5 mph - N/A   Scattered Clouds
6:53 AM 78.1 °F - 75.0 °F 90% 30.03 in 10.0 mi Calm Calm - N/A   Scattered Clouds
7:53 AM 79.0 °F - 75.9 °F 90% 30.04 in 10.0 mi Calm Calm - N/A   Mostly Cloudy
8:53 AM 80.1 °F 85.8 °F 77.0 °F 90% 30.05 in 10.0 mi Calm Calm - N/A   Mostly Cloudy
9:53 AM 81.0 °F 87.9 °F 77.0 °F 88% 30.04 in 10.0 mi Calm Calm - N/A   Mostly Cloudy
10:53 AM 82.0 °F 89.4 °F 75.9 °F 82% 30.04 in 10.0 mi South 3.5 mph - N/A   Mostly Cloudy
11:53 AM 84.0 °F 92.6 °F 75.9 °F 76% 30.01 in 10.0 mi SE 9.2 mph - N/A   Mostly Cloudy
12:53 PM 87.1 °F 95.4 °F 73.9 °F 65% 29.99 in 10.0 mi South 5.8 mph - N/A   Mostly Cloudy
1:53 PM 88.0 °F 96.5 °F 73.9 °F 63% 29.97 in 10.0 mi ESE 11.5 mph - N/A   Scattered Clouds
2:53 PM 88.0 °F 96.5 °F 73.9 °F 63% 29.94 in 10.0 mi SE 8.1 mph - N/A   Scattered Clouds
3:53 PM 84.9 °F 90.1 °F 71.1 °F 63% 29.94 in 10.0 mi ESE 11.5 mph - N/A   Scattered Clouds
4:07 PM 84.0 °F 89.0 °F 71.1 °F 65% 29.94 in 10.0 mi SE 9.2 mph - N/A Thunderstorm Thunderstorm
4:32 PM 82.0 °F 89.4 °F 75.9 °F 82% 29.95 in 7.0 mi West 6.9 mph - 0.01 in Rain Light Rain
4:53 PM 82.9 °F 90.8 °F 75.9 °F 79% 29.95 in 7.0 mi Calm Calm - 0.01 in Rain Light Rain
5:53 PM 84.9 °F 93.3 °F 75.0 °F 72% 29.96 in 10.0 mi ESE 9.2 mph - 0.00 in   Mostly Cloudy
6:53 PM 82.9 °F 90.2 °F 75.0 °F 77% 29.96 in 10.0 mi SSE 9.2 mph - N/A   Mostly Cloudy
7:53 PM 82.9 °F 90.8 °F 75.9 °F 79% 29.98 in 10.0 mi SE 10.4 mph - N/A   Scattered Clouds
8:53 PM 82.9 °F 90.8 °F 75.9 °F 79% 29.99 in 10.0 mi SE 6.9 mph - N/A   Mostly Cloudy
9:53 PM 82.9 °F 90.8 °F 75.9 °F 79% 30.01 in 10.0 mi South 4.6 mph - N/A   Mostly Cloudy
10:53 PM 82.0 °F 89.4 °F 75.9 °F 82% 30.02 in 10.0 mi Calm Calm - N/A   Scattered Clouds
11:53 PM 80.1 °F 85.4 °F 75.9 °F 87% 30.01 in 10.0 mi WSW 4.6 mph - N/A   Scattered Clouds